Back to catalog

STTW-2

AliveScienceGEO
NORAD 18922·PAYLOAD·🇨🇳 China

Launched Mar 7, 1988 from Xichang Satellite Launch Center

Loading…

TLE

FreshSource: Space-Track

Epoch: Sep 10, 2026, 16:41 UTC

1 18922U 88014A   26253.69521373 -.00000242  00000-0  00000-0 0  9996
2 18922  13.1945 339.0654 0004835 187.3660 161.2781  1.00286886140963

Track STTW-2 in real time with AllMySat

Download on the App Store